[[{"header":{"parameterUnit":"m.s-1","parameterCategory":1,"la1":30.2991,"la2":30.254,"lo1":-89.0895,"lo2":-89.0444,"dy":0.0017,"dx":0.0017,"nx":28,"ny":28,"refTime":"2024-12-19T03:00:00:Z","depth":0,"parameterNumber":2,"parameterNumberName":"U-component_of_WINDS"},"data":[0,0,0,0,0,0,0,0,0,0,0,0,0,0,0,0,0,0,0,0,0,0,0,0,0,0,0,0,0,0,0,0,0,0,0,0,0,0,0,0,0,0,0,0,0,0,0,0,0,0,0,0,0,0,0,0,0,0,0.222,0.222,0,0.2188,0.2188,0.2188,0.2162,0.2161,0.2161,0.2161,0.2126,0.2125,0.2124,0,0,0,0,0,0,0,0,0,0,0,0,0,0.2257,0.2257,0.222,0.222,0.2219,0.2188,0.2188,0.2188,0.2162,0.2161,0.2161,0.2161,0.2126,0.2125,0.2124,0,0,0,0,0,0,0,0,0,0,0,0,0,0.2235,0.2256,0.222,0.2203,0.2201,0.2189,0.2188,0.2187,0.2162,0.2161,0.2161,0.2161,0.2126,0.2125,0.2124,0.2126,0,0,0.2121,0.2121,0,0,0,0,0,0,0,0,0.2236,0.2233,0.2206,0.2204,0.2202,0.2179,0.2188,0.2167,0.2162,0.2177,0.2161,0.2161,0.2143,0.2141,0.2136,0.2124,0.2122,0.2121,0.212,0.212,0.212,0,0,0,0,0,0,0,0.2238,0.2235,0.2207,0.2205,0.2203,0.2196,0.2193,0.2184,0.2162,0.2175,0.2173,0.217,0.2142,0.2137,0.2135,0.2122,0.2121,0.212,0.2119,0.2119,0.2112,0.2112,0,0,0,0,0,0,0.2242,0.2236,0.2208,0.2206,0.2218,0.2196,0.2192,0.2186,0.2163,0.2159,0.217,0.2169,0.2139,0.2136,0.2133,0.2135,0.212,0.2119,0.2118,0.2111,0.2112,0.2112,0,0,0,0,0,0,0.2243,0.224,0.221,0.2221,0.2216,0.2196,0.219,0.2186,0.2181,0.2159,0.2155,0.2169,0.2138,0.2135,0.2128,0.2133,0.2118,0.2117,0.2111,0.2111,0.2112,0.2137,0,0,0,0,0,0,0.2244,0.224,0.2241,0.2221,0.2216,0.2206,0.219,0.2186,0.2179,0.2177,0.2156,0.2153,0.2138,0.213,0.2127,0.2132,0.2117,0.211,0.2111,0.2112,0.2136,0.2139,0.2141,0,0,0,0,0,0.2246,0.2248,0.2241,0.2238,0.2216,0.2206,0.2203,0.2187,0.218,0.218,0.2166,0.2153,0.2133,0.213,0.2126,0.213,0.211,0.2111,0.2112,0.2135,0.2138,0.2141,0,0,0,0,0,0,0.2267,0.2245,0.2237,0.2233,0.2222,0.2202,0.2201,0.219,0.218,0.2178,0.2158,0.2153,0.215,0.2139,0.2135,0.2131,0.212,0.212,0.2138,0.2141,0.2144,0.2147,0.2116,0,0,0,0,0,0.2272,0.2266,0.2247,0.2245,0.224,0.2222,0.2217,0.2206,0.2192,0.2187,0.2173,0.216,0.2151,0.2146,0.2136,0.2134,0.213,0.2135,0.2138,0.214,0.2141,0.2141,0.2144,0.2115,0.2115,0.2115,0,0,0.2281,0.2268,0.2265,0.2249,0.2239,0.2233,0.2218,0.2212,0.2207,0.2186,0.218,0.2169,0.2154,0.215,0.2148,0.2141,0.2148,0.2142,0.2144,0.2143,0.2142,0.2145,0.2147,0.2116,0.2116,0.2116,0,0,0.2294,0.2284,0.2282,0.2273,0.2259,0.2247,0.2247,0.2229,0.2221,0.2215,0.2199,0.2194,0.2178,0.2169,0.2162,0.2174,0.2162,0.2172,0.2185,0.2185,0.2188,0.219,0.2195,0.2197,0.2172,0.2172,0.2172,0,0.2306,0.2298,0.2282,0.2278,0.2272,0.2254,0.2253,0.2244,0.2227,0.2223,0.2217,0.2199,0.2187,0.2182,0.2185,0.218,0.2179,0.2174,0.2189,0.219,0.2192,0.2197,0.2199,0.2174,0.2173,0.2173,0.2173,0,0.2315,0.2309,0.231,0.2296,0.229,0.2287,0.2271,0.2266,0.2256,0.2246,0.224,0.2226,0.2214,0.2212,0.2201,0.2206,0.2203,0.2193,0.2181,0.2196,0.2201,0.2203,0.2176,0.2175,0.2175,0.2174,0,0,0.2339,0.2319,0.2319,0.2313,0.2297,0.2293,0.229,0.228,0.2277,0.2266,0.2263,0.2252,0.2244,0.2236,0.2224,0.2224,0.2237,0.2215,0.2214,0.222,0.2243,0.2252,0.2254,0.223,0.223,0.223,0.2245,0,0.2351,0.2345,0.2332,0.233,0.2326,0.231,0.2308,0.2298,0.2288,0.2282,0.2271,0.2264,0.2253,0.2248,0.2248,0.2236,0.2242,0.2235,0.2227,0.2227,0.2232,0.2256,0.2264,0.2279,0.2247,0.2247,0.2247,0,0.2363,0.2355,0.2354,0.234,0.2338,0.2336,0.2327,0.2322,0.2311,0.2304,0.2297,0.2284,0.2281,0.227,0.2265,0.2261,0.2257,0.2251,0.2251,0.225,0.2238,0.2257,0.2283,0.2286,0.225,0.2249,0.2249,0,0.2382,0.2372,0.237,0.2365,0.2349,0.2349,0.2342,0.233,0.2326,0.2318,0.2315,0.2306,0.2301,0.2295,0.2281,0.2274,0.2278,0.2265,0.2272,0.2273,0.2274,0.2274,0.2301,0.2271,0.2271,0.2271,0.227,0,0.2397,0.2396,0.2379,0.2378,0.2378,0.2363,0.2363,0.2355,0.2345,0.2343,0.2328,0.2325,0.2307,0.2302,0.2291,0.229,0.2288,0.2282,0.2279,0.2284,0.2285,0.2281,0.228,0.2271,0.2271,0.2271,0.2271,0,0.2418,0.2406,0.2403,0.2389,0.2386,0.2387,0.2375,0.2373,0.2364,0.236,0.2359,0.2343,0.2338,0.2324,0.2313,0.2306,0.2308,0.2302,0.2312,0.2311,0.2319,0.2319,0.2345,0.2348,0.2315,0.2316,0.2316,0,0.2428,0.2428,0.2415,0.2413,0.2407,0.2403,0.24,0.2385,0.2382,0.2371,0.2371,0.2365,0.2359,0.2351,0.2338,0.2331,0.2326,0.2336,0.2324,0.233,0.2327,0.2328,0.2328,0.2338,0.2338,0.2339,0.2339,0,0.2447,0.2442,0.2438,0.2432,0.2428,0.2423,0.2416,0.2415,0.2399,0.2396,0.2391,0.2387,0.2378,0.2372,0.2364,0.2356,0.2346,0.2343,0.2344,0.2349,0.2355,0.2353,0.232,0.2342,0.2342,0.2342,0.2341,0.2341,0.2464,0.2464,0.2456,0.2452,0.2446,0.2441,0.244,0.2431,0.2427,0.242,0.2412,0.2408,0.2399,0.2386,0.238,0.2377,0.2371,0.2373,0.2373,0.2374,0.2377,0.2356,0.2375,0.2375,0.2375,0.2375,0.2375,0,0.2484,0.2478,0.2475,0.2467,0.2465,0.2456,0.2449,0.2447,0.2445,0.2437,0.2433,0.2428,0.2423,0.2412,0.2406,0.2406,0.2401,0.2405,0.2405,0.2404,0.2382,0.2382,0.2409,0.2409,0.2409,0.2409,0.2409,0.2409,0.2493,0.2494,0.2488,0.2486,0.248,0.2478,0.2475,0.2471,0.2465,0.2461,0.2457,0.2451,0.2442,0.2436,0.2431,0.2428,0.2427,0.2433,0.2428,0.2408,0.2405,0.2402,0.2402,0.2432,0.2432,0.245,0.245,0.245]},{"header":{"parameterUnit":"m.s-1","parameterCategory":1,"la1":30.2991,"la2":30.254,"lo1":-89.0895,"lo2":-89.0444,"dy":0.0017,"dx":0.0017,"nx":28,"ny":28,"refTime":"2024-12-19T03:00:00:Z","depth":0,"parameterNumber":3,"parameterNumberName":"V-component_of_WINDS"},"data":[0,0,0,0,0,0,0,0,0,0,0,0,0,0,0,0,0,0,0,0,0,0,0,0,0,0,0,0,0,0,0,0,0,0,0,0,0,0,0,0,0,0,0,0,0,0,0,0,0,0,0,0,0,0,0,0,0,0,-4.9042,-4.9042,0,-4.9023,-4.9023,-4.9022,-4.8965,-4.8964,-4.8963,-4.8962,-4.8939,-4.894,-4.894,0,0,0,0,0,0,0,0,0,0,0,0,0,-4.9027,-4.9028,-4.9042,-4.9042,-4.9041,-4.9023,-4.9023,-4.9022,-4.8965,-4.8964,-4.8962,-4.8961,-4.8939,-4.894,-4.894,0,0,0,0,0,0,0,0,0,0,0,0,0,-4.9023,-4.9028,-4.9042,-4.9011,-4.9008,-4.9023,-4.9023,-4.9022,-4.8966,-4.8964,-4.8962,-4.896,-4.8939,-4.894,-4.8941,-4.8983,0,0,-4.8943,-4.8943,0,0,0,0,0,0,0,0,-4.9024,-4.9024,-4.9016,-4.9013,-4.901,-4.8995,-4.9009,-4.9009,-4.8966,-4.8982,-4.8962,-4.8959,-4.8959,-4.8958,-4.8959,-4.8982,-4.8981,-4.8943,-4.8944,-4.8944,-4.8944,0,0,0,0,0,0,0,-4.9024,-4.9025,-4.9034,-4.9015,-4.9012,-4.8997,-4.8995,-4.9009,-4.8981,-4.898,-4.8976,-4.8975,-4.8957,-4.8958,-4.8958,-4.8981,-4.8943,-4.8944,-4.8944,-4.8945,-4.9041,-4.9043,0,0,0,0,0,0,-4.9029,-4.9025,-4.9035,-4.9034,-4.9012,-4.8999,-4.8996,-4.9001,-4.8981,-4.8976,-4.8976,-4.8972,-4.8957,-4.8957,-4.8957,-4.9007,-4.8944,-4.8945,-4.8945,-4.9039,-4.9042,-4.9044,0,0,0,0,0,0,-4.9029,-4.903,-4.9035,-4.9028,-4.9028,-4.9001,-4.9008,-4.9002,-4.9003,-4.8978,-4.8972,-4.8983,-4.8956,-4.8955,-4.8978,-4.9005,-4.8945,-4.8946,-4.9037,-4.904,-4.9043,-4.9107,0,0,0,0,0,0,-4.9029,-4.9031,-4.9047,-4.9029,-4.9028,-4.9058,-4.9009,-4.9003,-4.9005,-4.8999,-4.8982,-4.8977,-4.8954,-4.8977,-4.8979,-4.9005,-4.8947,-4.9034,-4.9038,-4.9042,-4.9102,-4.9111,-4.912,0,0,0,0,0,-4.9029,-4.9064,-4.9048,-4.9049,-4.9048,-4.9059,-4.9059,-4.9032,-4.9007,-4.9023,-4.9008,-4.8978,-4.9002,-4.898,-4.8981,-4.9008,-4.9032,-4.9037,-4.9041,-4.9098,-4.911,-4.9119,0,0,0,0,0,0,-4.9084,-4.9061,-4.9043,-4.9074,-4.9069,-4.905,-4.9068,-4.9045,-4.9046,-4.9041,-4.9007,-4.9004,-4.9031,-4.9022,-4.8997,-4.905,-4.9012,-4.9018,-4.9055,-4.9066,-4.9074,-4.9076,-4.8947,0,0,0,0,0,-4.91,-4.9112,-4.9091,-4.9121,-4.9119,-4.9095,-4.9098,-4.9079,-4.9072,-4.9069,-4.9055,-4.9049,-4.9055,-4.906,-4.9064,-4.9101,-4.9097,-4.912,-4.9129,-4.9137,-4.9141,-4.9162,-4.9172,-4.9059,-4.9059,-4.9059,0,0,-4.9133,-4.9122,-4.9131,-4.9132,-4.9125,-4.9138,-4.9093,-4.9108,-4.9117,-4.9071,-4.9092,-4.9082,-4.9073,-4.9103,-4.9116,-4.9096,-4.9172,-4.9142,-4.9149,-4.9149,-4.9168,-4.9178,-4.9188,-4.9062,-4.9062,-4.9061,0,0,-4.9199,-4.9192,-4.9217,-4.9213,-4.9205,-4.9189,-4.9195,-4.918,-4.9172,-4.9193,-4.9159,-4.917,-4.9181,-4.9176,-4.9175,-4.9244,-4.9218,-4.9246,-4.9292,-4.9313,-4.9322,-4.933,-4.9355,-4.9364,-4.9251,-4.9252,-4.9252,0,-4.924,-4.9259,-4.9232,-4.925,-4.9252,-4.9213,-4.9239,-4.9235,-4.9229,-4.9231,-4.921,-4.9225,-4.9216,-4.9246,-4.9263,-4.9263,-4.9269,-4.9248,-4.9323,-4.933,-4.9337,-4.9361,-4.9371,-4.9255,-4.9255,-4.9254,-4.9254,0,-4.9311,-4.9325,-4.9346,-4.9343,-4.9347,-4.9368,-4.9345,-4.9352,-4.9333,-4.932,-4.9343,-4.9331,-4.9333,-4.9339,-4.9319,-4.9367,-4.9355,-4.9329,-4.9291,-4.9352,-4.9374,-4.9383,-4.926,-4.9259,-4.9258,-4.9257,0,0,-4.9409,-4.9394,-4.9402,-4.9402,-4.9392,-4.9401,-4.9422,-4.9426,-4.9434,-4.9431,-4.9448,-4.946,-4.9437,-4.9436,-4.9416,-4.9434,-4.9491,-4.9405,-4.9405,-4.9422,-4.9544,-4.9564,-4.9575,-4.9473,-4.9475,-4.9476,-4.9545,0,-4.9473,-4.9508,-4.9486,-4.9524,-4.9537,-4.9502,-4.952,-4.9516,-4.9505,-4.9514,-4.9501,-4.951,-4.9478,-4.9478,-4.9494,-4.948,-4.9515,-4.9475,-4.9488,-4.9489,-4.9492,-4.9586,-4.9606,-4.9671,-4.9553,-4.9554,-4.9555,0,-4.9551,-4.9555,-4.9595,-4.9585,-4.959,-4.9607,-4.961,-4.9619,-4.9614,-4.9605,-4.9606,-4.9583,-4.9602,-4.9565,-4.9592,-4.9566,-4.957,-4.9565,-4.9567,-4.9567,-4.9526,-4.9589,-4.9691,-4.9701,-4.9568,-4.9567,-4.9566,0,-4.962,-4.9635,-4.9662,-4.9662,-4.9651,-4.9664,-4.966,-4.9653,-4.9658,-4.9661,-4.9664,-4.9668,-4.9671,-4.9675,-4.9653,-4.9628,-4.9684,-4.9644,-4.9676,-4.9677,-4.9689,-4.9688,-4.9794,-4.9692,-4.9692,-4.9691,-4.9691,0,-4.9693,-4.9719,-4.9693,-4.9709,-4.9738,-4.9713,-4.9742,-4.9734,-4.9729,-4.9744,-4.9713,-4.9727,-4.9698,-4.9709,-4.9692,-4.9718,-4.9719,-4.9712,-4.9707,-4.9715,-4.9716,-4.9716,-4.9712,-4.9694,-4.9693,-4.9693,-4.9692,0,-4.9774,-4.9758,-4.9785,-4.9773,-4.9771,-4.9793,-4.9783,-4.9798,-4.9786,-4.9804,-4.9807,-4.9788,-4.9799,-4.9779,-4.9787,-4.9776,-4.9812,-4.98,-4.9814,-4.9811,-4.9844,-4.9842,-4.9954,-4.9968,-4.9857,-4.9858,-4.9859,0,-4.9822,-4.9842,-4.9834,-4.9842,-4.9841,-4.9854,-4.9859,-4.9836,-4.9843,-4.9841,-4.9857,-4.9866,-4.9873,-4.9893,-4.9879,-4.9886,-4.9874,-4.9913,-4.9875,-4.9883,-4.9876,-4.9875,-4.9877,-4.9921,-4.9922,-4.9923,-4.9924,0,-4.9909,-4.9901,-4.991,-4.9919,-4.9927,-4.9931,-4.9933,-4.9942,-4.9917,-4.9927,-4.994,-4.9945,-4.9956,-4.9966,-4.997,-4.9965,-4.9941,-4.9937,-4.9945,-4.9952,-4.996,-4.9957,-4.9836,-4.9934,-4.9933,-4.9932,-4.9932,-4.9931,-4.9975,-4.9992,-4.999,-5.0003,-5.0003,-5.0006,-5.0021,-5.0012,-5.0022,-5.003,-5.0016,-5.0032,-5.0029,-5.0033,-5.0031,-5.0044,-5.0026,-5.0037,-5.004,-5.0043,-5.0049,-4.9959,-5.0044,-5.0044,-5.0044,-5.0043,-5.0043,0,-5.0061,-5.0059,-5.0071,-5.0077,-5.0087,-5.0066,-5.0068,-5.0078,-5.0094,-5.0094,-5.0102,-5.0118,-5.0128,-5.0117,-5.0125,-5.0138,-5.0127,-5.0141,-5.0139,-5.0139,-5.0064,-5.0057,-5.0149,-5.0149,-5.0149,-5.0149,-5.0149,-5.0149,-5.0107,-5.0135,-5.0127,-5.0156,-5.0153,-5.017,-5.0174,-5.0177,-5.0178,-5.0197,-5.0207,-5.02,-5.0196,-5.0204,-5.0213,-5.0209,-5.0214,-5.0232,-5.0225,-5.0154,-5.0144,-5.0134,-5.0127,-5.0233,-5.0233,-5.0298,-5.0299,-5.03]}]]